TimePDT,TemperatureF,Dew PointF,Humidity,Sea Level PressureIn,VisibilityMPH,Wind Direction,Wind SpeedMPH,Gust SpeedMPH,PrecipitationIn,Events,Conditions,WindDirDegrees,DateUTC
12:56 AM,60.1,53.1,78,29.92,10.0,Calm,Calm,-,N/A,,Clear,0,2013-09-06 07:56:00
1:56 AM,57.9,52.0,81,29.91,10.0,Calm,Calm,-,N/A,,Clear,0,2013-09-06 08:56:00
2:56 AM,59.0,53.1,81,29.89,10.0,Calm,Calm,-,N/A,,Clear,0,2013-09-06 09:56:00
3:56 AM,57.0,51.1,81,29.88,10.0,ESE,4.6,-,N/A,,Clear,110,2013-09-06 10:56:00
4:56 AM,57.0,52.0,83,29.87,10.0,North,-9999.0,-,N/A,,Clear,0,2013-09-06 11:56:00
5:56 AM,57.9,52.0,81,29.87,10.0,ENE,6.9,-,N/A,,Clear,70,2013-09-06 12:56:00
6:56 AM,57.9,53.1,84,29.88,10.0,ESE,4.6,-,N/A,,Clear,110,2013-09-06 13:56:00
7:56 AM,62.1,54.0,75,29.89,10.0,Calm,Calm,-,N/A,,Clear,0,2013-09-06 14:56:00
8:56 AM,70.0,54.0,57,29.89,10.0,Calm,Calm,-,N/A,,Clear,0,2013-09-06 15:56:00
9:56 AM,75.9,54.0,46,29.89,10.0,WNW,3.5,-,N/A,,Clear,290,2013-09-06 16:56:00
10:56 AM,82.0,55.0,39,29.88,10.0,NW,6.9,-,N/A,,Clear,310,2013-09-06 17:56:00
11:56 AM,81.0,55.0,41,29.88,10.0,NW,10.4,-,N/A,,Clear,310,2013-09-06 18:56:00
12:56 PM,82.0,53.1,37,29.88,10.0,NW,12.7,-,N/A,,Clear,310,2013-09-06 19:56:00
1:56 PM,84.9,52.0,32,29.86,10.0,NW,11.5,-,N/A,,Clear,310,2013-09-06 20:56:00
2:56 PM,82.9,48.9,31,29.84,10.0,NW,15.0,-,N/A,,Clear,310,2013-09-06 21:56:00
3:56 PM,84.9,50.0,30,29.83,10.0,WNW,13.8,-,N/A,,Clear,300,2013-09-06 22:56:00
4:56 PM,81.0,50.0,34,29.83,10.0,NW,12.7,-,N/A,,Clear,310,2013-09-06 23:56:00
5:56 PM,79.0,50.0,36,29.82,10.0,NW,9.2,-,N/A,,Clear,310,2013-09-07 00:56:00
6:56 PM,72.0,55.0,55,29.83,10.0,WNW,3.5,-,N/A,,Clear,290,2013-09-07 01:56:00
7:56 PM,64.9,55.0,70,29.85,10.0,Calm,Calm,-,N/A,,Clear,0,2013-09-07 02:56:00
8:35 PM,62.6,55.4,77,29.86,10.0,Calm,Calm,-,N/A,,Clear,0,2013-09-07 03:35:00
8:56 PM,62.1,55.0,78,29.87,10.0,Calm,Calm,-,N/A,,Clear,0,2013-09-07 03:56:00
9:56 PM,60.1,53.1,78,29.87,10.0,Calm,Calm,-,N/A,,Clear,0,2013-09-07 04:56:00
10:56 PM,59.0,53.1,81,29.87,10.0,Calm,Calm,-,N/A,,Clear,0,2013-09-07 05:56:00
11:56 PM,57.9,53.1,84,29.87,10.0,Calm,Calm,-,N/A,,Clear,0,2013-09-07 06:56:00